Tracking 29892 objects as of 21-Nov-2024
HD Live streaming from Space Station
objects crossing your sky now

NIMBUS 2 DEB

Track NIMBUS 2 DEB now!
10-day predictions


NORAD ID: 24956
Int'l Code: 1966-040C
Perigee: 1,005.4 km
Apogee: 1,067.9 km
Inclination: 100.5 °
Period: 105.8 minutes
Semi major axis: 7407 km
RCS: 0.027 m2 (small)
Launch date: May 15, 1966
Source: United States (US)
Launch site: AIR FORCE WESTERN TEST RANGE (AFWTR)

Note: This is SATELLITE DEBRIS
Your satellite tracking list
Your tracking list is empty




NASA's NSSDC Master Catalog

Two Line Element Set (TLE):
1 24956U 66040C   24325.36251920  .00003404  00000-0  44764-2 0  9994
2 24956 100.4582 102.1439 0042195   8.8889  18.0214 13.61697849861184
Source of the keplerian elements: AFSPC